"Pseudo-MPEC" for 1972-073A = IMP-7 = NORAD 06197

Created 2018 Sep 19 1:32:30 UT using Find_Orb

Click here for an explanation of pseudo-MPECs

Click here for the original version of this page.

 
 Astrometry: 
     UE2A938  C2013 03 12.22876 09 48 29.48 +14 12 12.6          16.8 V D0476703
     UE2A938  C2013 03 12.23381 09 48 51.15 +14 15 30.1          16.8 V D0476703
     UE2A938  C2013 03 12.23890 09 49 12.97 +14 18 47.5          16.9 V D0476703
     UE2A938  C2013 03 12.32882 09 55 51.63 +15 13 38.9          17.5 V D0476703
     UE2A938  C2013 03 12.32914 09 55 53.18 +15 13 48.6          17.2 V D0476703
     UE2A938  C2013 03 12.32947 09 55 54.69 +15 14 01.3          17.5 V D0476703
     UE2A938  C2013 03 12.32979 09 55 56.20 +15 14 12.7          17.5 V D0476703
     UE2A938  C2013 03 12.39082 10 00 58.14 +15 47 42.2          17.7 V D0476703
     UE2A938  C2013 03 12.39116 10 00 59.90 +15 47 52.9          17.7 V D0476703
     UE2A938  C2013 03 12.39148 10 01 01.63 +15 48 03.6          17.6 V D0476703
     UE2A938  C2013 03 12.39181 10 01 03.28 +15 48 12.9          17.7 V D0476703
     UE2A938  C2013 03 12.46475 10 17 24.52 +16 32 11.5          18.1 R D0476300
     UE2A938  C2013 03 12.46581 10 17 30.19 +16 32 57.2          18.0 R D0476300
     UE2A938  C2013 03 12.46688 10 17 35.89 +16 33 43.3          17.9 R D0476300
     UE2A938  C2013 03 12.46794 10 17 41.54 +16 34 28.5          18.0 R D0476300
     UE2A938  C2013 03 12.46900 10 17 47.19 +16 35 13.8          18.0 R D0476300
     UE2A938  C2013 03 12.63428 10 31 49.65 +18 22 08.4          17.7 R D0476300
     UE2A938  C2013 03 12.63498 10 31 53.24 +18 22 32.0          18.2 R D0476300
     UE2A938  C2013 03 12.63570 10 31 56.98 +18 22 57.5          18.1 R D0476300
     UE2A938  C2013 03 12.63639 10 32 00.58 +18 23 20.7          18.0 R D0476300
     UE2A938  C2013 03 12.63708 10 32 04.14 +18 23 43.2          18.2 R D0476300
     UE2A938 KC2013 03 13.96628314 00 18.77 +25 32 06.5          18.7 R D0476J95
     UE2A938 KC2013 03 13.96830614 00 38.90 +25 32 13.7          18.3 R D0476J95
     UE2A938 KC2013 03 13.97147214 01 10.29 +25 32 24.1          18.6 R D0476J95
     UE2A938 KC2013 03 13.97590514 01 54.14 +25 32 36.9          18.3 R D0476J95
     UE2A938 KC2013 04 05.87521109 28 41.38 +12 59 10.0          15.6 R D0478J95
     UE2A938 KC2013 04 05.87633009 28 46.38 +12 59 50.8          15.6 R D0478J95
     UE2A938 KC2013 04 05.88731909 29 35.64 +13 06 27.9          15.5 R D0478J95
     UE2A938 KC2013 04 05.88824909 29 39.86 +13 07 01.6          15.5 R D0478J95
     UE2A938 KC2013 04 05.88933209 29 44.70 +13 07 40.1          15.5 R D0478J95
     UE2A938 KC2013 04 07.04115211 39 54.84 +23 14 36.2          18.1 R D0478J95
     UE2A938 KC2013 04 07.04227311 40 02.33 +23 14 56.9          18.2 R D0478J95
     UE2A938 KC2013 04 07.04428711 40 15.78 +23 15 33.2          19.0 R D0478J95
     UE2A938 KC2013 04 07.04592611 40 26.71 +23 16 02.4          18.3 R D0478J95
     UE2A938 KC2013 04 19.92097712 19 43.58 +26 12 50.7          18.8 R D0479J95
     UE2A938 KC2013 04 19.92304812 19 57.39 +26 13 24.0          18.5 R D0479J95
     UE2A938 KC2013 04 19.92500312 20 10.48 +26 13 54.6          18.6 R D0479J95
     UE2A938 KC2013 05 02.93777113 32 04.61 +27 25 51.4          18.2 R D0481J95
     UE2A938 KC2013 05 02.93972813 32 18.98 +27 25 47.7          18.7 R D0481J95
     UE2A938 KC2013 05 02.94175113 32 33.74 +27 25 42.6          19.1 R D0481J95
     UE2A938 KC2013 07 04.97559819 25 25.84 -04 38 42.3          18.0 R D0485J95
     UE2A938 KC2013 07 04.98116219 26 06.76 -04 46 11.1          18.1 R D0485J95
     UE2A938 KC2013 07 04.98624719 26 44.23 -04 53 00.3          18.2 R D0485J95
     UE2A938  C2014 01 26.24938 08 52 28.83 +23 17 11.4          18.0 VqD0504703
     UE2A938  C2014 01 26.26139 08 53 10.62 +23 25 23.8          18.0 VqD0504703
     UE2A938  C2014 01 26.26743 08 53 31.51 +23 29 30.5          17.9 VqD0504703
     UE2A938  C2014 01 26.29686 08 55 10.78 +23 48 44.7          18.0 VqD0504703
     UE2A938  C2014 01 26.29849 08 55 16.22 +23 49 46.9          18.2 VqD0504703
     UE2A938  C2014 01 26.30012 08 55 21.64 +23 50 48.5          18.1 VqD0504703
     UE2A938  C2014 01 26.30175 08 55 27.11 +23 51 50.3          18.0 VqD0504703
IMP-7        KC2014 07 21.97845317 31 37.72 -01 10 36.0          18.4 RqD0511J95
IMP-7        KC2014 07 21.98214217 31 56.61 -01 15 21.6          18.6 RqD0511J95
IMP-7        KC2014 07 21.98724217 32 22.85 -01 21 55.5          18.4 RqD0511J95
     UE2A938  C2015 01 20.38280 11 19 44.36 +40 18 46.3          19.4 V D0514703
     UE2A938  C2015 01 20.38786 11 20 00.95 +40 18 40.3          19.6 V D0514703
     UE2A938  C2015 01 20.39463 11 20 23.66 +40 18 25.5          19.5 V D0514703
     UE2A938  C2015 01 20.39969 11 20 40.06 +40 18 12.8                 D0514703
IMP7          C2015 11 20.26497 04 27 39.34 +21 56 18.2          17.5 VqD0540703
IMP7          C2015 11 20.27606 04 28 24.68 +22 13 35.0          16.4 VqD0540703
IMP7          C2015 11 20.28160 04 28 47.17 +22 22 09.1          17.1 VqD0540703
IMP7         KC2016 02 18.81714509 25 29.09 +49 28 16.1          19.1 RqD0541J95
IMP7         KC2016 02 18.82352709 26 03.59 +49 28 11.3          19.3 RqD0541J95
IMP7         KC2016 02 18.82991909 26 37.76 +49 28 04.3          19.4 RqD0541J95
IMP7          C2016 09 24.30625302 01 28.01 +07 46 47.2          17.3 V D0551H21
IMP7          C2016 09 24.30683802 01 29.82 +07 47 53.4          17.0 V D0551H21
IMP7          C2016 09 24.30754102 01 32.02 +07 49 14.0          17.0 V D0551H21
IMP7          C2016 09 24.30848102 01 34.91 +07 50 59.5          16.7 V D0551H21
IMP7          C2016 09 24.33495402 02 56.88 +08 40 27.7          16.2 V D0551H21
IMP7          C2016 09 24.33648302 03 01.63 +08 43 17.7          16.3 V D0551H21
IMP7          C2016 09 24.33935602 03 10.53 +08 48 37.2          16.3 V D0551H21
IMP7          C2016 09 24.34078102 03 14.95 +08 51 15.3          16.1 V D0551H21
IMP7          C2016 09 24.34472302 03 27.26 +08 58 33.5          15.8 V D0551H21
IMP7          C2016 09 24.34739602 03 35.58 +09 03 29.0          16.2 V D0551H21
IMP7          C2016 09 24.35540502 04 00.64 +09 18 12.9          16.0 V D0551H21
IMP7          C2016 09 24.35807402 04 09.01 +09 23 06.8          15.8 V D0551H21
1972-073A     C2017 02 24.35643 11 04 45.14 +38 09 01.0          19.5 VqNEOCPG96
1972-073A     C2017 02 24.36278 11 05 02.09 +38 01 43.3          19.4 VqNEOCPG96
1972-073A     C2017 02 24.37045 11 05 22.18 +37 52 58.2          18.7 VqNEOCPG96
     ZG34622  C2018 04 08.29242 12 09 26.76 -11 00 49.7          18.5 GU     703
     ZG34622  C2018 04 08.29772 12 09 32.68 -11 06 23.1          19.2 GU     703
     ZG34622  C2018 04 08.30302 12 09 38.73 -11 12 08.4          18.1 GU     703
     ZG34622  C2018 04 08.30832 12 09 44.85 -11 17 47.5          17.7 GU     703
     ZR3B48D  C2018 09 10.20940 22 41 47.68 -09 41 22.1                V     703
     ZR3B48D  C2018 09 10.21469 22 42 07.00 -09 31 10.8          15.7 GV     703
     ZR3B48D  C2018 09 10.21998 22 42 25.93 -09 21 05.9          14.9 GV     703

Station data:
(300) Bisei Spaceguard Center-BATTeRS  (N34.671960 E133.544440)  Japan. 1.0-m
   f/3.0 reflector + CCD.
(703) Catalina Sky Survey  (N32.417006 W110.732640)  US/Arizona.  Observers
   A. Boattini, R. Hill, E. J. Christensen, G. J. Leonard, B. M. Africano, D.
   C. Fuls. Measurers A. Boattini, E. J. Christensen, A. R. Gibbs, A. D.
   Grauer, R. E. Hill, J. A. Johnson, R. A. Kowalski, S. M. Larson, F. C.
   Shelly, R. J. Sanders, D. C. Fuls, G. J. Leonard, R. G. Matheny, R. L.
   Seaman, B. M. Africano, G. A. Farneth, H. Groeller. 0.68-m Schmidt + CCD,
   0.68-m Schmidt + 10K CCD.
(G96) Mt. Lemmon Survey  (N32.442754 W110.788720)  US/Arizona.  Observer D.
   C. Fuls. Measurers E. J. Christensen, D. C. Fuls, A. R. Gibbs, A. D.
   Grauer, J. A. Johnson, R. A. Kowalski, S. M. Larson, G. J. Leonard, R. G.
   Matheny, R. L. Seaman, F. C. Shelly. 1.5-m reflector + 10K CCD.
(H21) Astronomical Research Observatory, Westfield  (N39.483057 W87.968270)
   US/Illinois. 0.76-m f/3.0 astrograph + CCD.
(J95) Great Shefford  (N51.474969 W1.447003)  UK.  Observer P. Birtwhistle.
   0.40-m f/6.0 Schmidt-Cassegrain + CCD.

Orbital elements:  1972-073A = IMP-7 = NORAD 06197
   Perigee 2016 Sep 22.847529 +/- 5.87e-5 TT = 20:20:26 (JD 2457654.347529)
Epoch 2016 Sep 20.0 TT; AMR 0.01009 +/- 0.000293 m2/kg       Gray
M 279.4650413 +/- 0.0016            (J2000 equator)
n  28.2824031913 +/- 2.92e-5        Peri.  309.8539284 +/- 0.0012
a230281.63273 +/- 0.158             Node    24.2258249 +/- 0.0007
e   0.209653941 +/- 7.73e-6         Incl.   55.2303036 +/- 0.00007
P  12.73d                  H 30.9   G  0.15   U  5.7
q 182002.18070 +/- 1.71    Q 278561.08477 +/- 1.9
From 85 observations 2013 Mar. 12-2018 Sept. 10; mean residual 15".189
Residuals in arcseconds: 
130312 703 16.3- 9.53-    130405 J95 6.05- 6.15-    151120 703 8.53- 6.29-
130312 703 15.9- 9.31-    130407 J95 6.01+ 5.16-    151120 703 7.68- 5.76-
130312 703 16.1- 9.61-    130407 J95 6.23+ 4.91-    160218 J95 4.81- 5.50-
130312 703 15.5- 9.60-    130407 J95 6.24+ 5.15-    160218 J95 5.00- 5.67-
130312 703 14.7- 10.9-    130407 J95 5.73+ 5.48-    160218 J95 4.71- 5.52-
130312 703 15.2- 9.56-    130419 J95 13.5+ 5.40-    160924 H21 2.59- 7.80+
130312 703 15.0- 9.16-    130419 J95 13.4+ 4.90-    160924 H21 2.66- 7.91+
130312 703 15.1- 9.50-    130419 J95 14.1+ 4.94-    160924 H21 2.37- 9.12+
130312 703 15.5- 9.53-    130502 J95 12.8+ 8.37-    160924 H21 2.74- 8.51+
130312 703 14.8- 8.92-    130502 J95 13.4+ 7.52-    160924 H21 2.52- 7.80+
130312 703 16.0- 10.0-    130502 J95 12.7+ 7.53-    160924 H21 2.41- 7.55+
130312 300 14.6- 9.82-    130704 J95 11.8- 5.11+    160924 H21 2.69- 7.52+
130312 300 14.7- 9.52-    130704 J95 12.9- 4.80+    160924 H21 2.81- 7.33+
130312 300 15.1- 9.20-    130704 J95 11.4- 4.90+    160924 H21 2.16- 8.27+
130312 300 15.3- 9.33-    140126 703 27.1- 14.4-    160924 H21 2.36- 7.83+
